Pine River, MN

5:50 PM CDT on April 25, 2017 (GMT -0500)
Pine River Regional

Weather History for KPWC - May, 2013

Change the Weather History Date:

Thursday, May 16, 2013

  Actual Average Record
Temperature  
Mean Temperature 57 °F -  
Max Temperature 75 °F 62 °F 78 °F (2008)
Min Temperature 39 °F 40 °F 28 °F (2014)
Degree Days  
Heating Degree Days 8    
Growing Degree Days 7 (Base 50)    
Moisture  
Dew Point 34 °F    
Average Humidity 43    
Maximum Humidity 93    
Minimum Humidity 19    
Precipitation  
Precipitation 0.00 in - - ()
Sea Level Pressure  
Sea Level Pressure 29.96 in    
Wind  
Wind Speed 3 mph (ESE)    
Max Wind Speed 14 mph    
Max Gust Speed 20 mph    
Visibility 10 miles    
Events      
Averages and records for this station are not official NWS values.
T = Trace of Precipitation, MM = Missing Value Source: NWS Daily Summary

Daily Weather History Graph

Daily Weather History Graph

Search for Another Location

Airport or City:

Trip Planner

Search our weather history database for the weather conditions in past years. The results will help you decide how hot, cold, wet, or windy it might be!

Date:

Astronomy

May. 16, 2013 Rise Set
Actual Time 5:41 AM CDT 8:46 PM CDT
Civil Twilight 5:05 AM CDT 9:23 PM CDT
Nautical Twilight 4:19 AM CDT 10:09 PM CDT
Astronomical Twilight 3:22 AM CDT 11:07 PM CDT
Moon 11:22 AM CDT (5/16) 1:02 AM CDT (5/16)
Length of Visible Light 16h 17m
Length of Day
15h 05m
Waxing Crescent, 36% of the Moon is Illuminated
May 16
Waxing Crescent
May 17
First Quarter
May 24
Full
May 31
Last Quarter
Jun 8
New

Hourly Weather History & Observations

Time (CDT) Temp. Dew Point Humidity Pressure Visibility Wind Dir Wind Speed Gust Speed Precip Events Conditions
12:13 AM 51.8 °F 39.2 °F 62% 29.89 in 10.0 mi Calm Calm - N/A   Clear
12:33 AM 48.2 °F 39.2 °F 71% 29.90 in 10.0 mi Calm Calm - N/A   Clear
12:53 AM 48.2 °F 39.2 °F 71% 29.91 in 10.0 mi Calm Calm - N/A   Clear
1:12 AM 46.4 °F 39.2 °F 76% 29.91 in 10.0 mi Calm Calm - N/A   Clear
1:33 AM 46.4 °F 39.2 °F 76% 29.92 in 10.0 mi Calm Calm - N/A   Clear
1:53 AM 46.4 °F 39.2 °F 76% 29.92 in 10.0 mi Calm Calm - N/A   Clear
2:12 AM 46.4 °F 41.0 °F 81% 29.92 in 10.0 mi Calm Calm - N/A   Clear
2:33 AM 46.4 °F 41.0 °F 81% 29.92 in 10.0 mi Calm Calm - N/A   Clear
2:52 AM 46.4 °F 41.0 °F 81% 29.93 in 10.0 mi Calm Calm - N/A   Clear
3:13 AM 42.8 °F 37.4 °F 81% 29.93 in 10.0 mi Calm Calm - N/A   Clear
3:33 AM 44.6 °F 39.2 °F 81% 29.94 in 10.0 mi Calm Calm - N/A   Scattered Clouds
3:52 AM 42.8 °F 37.4 °F 81% 29.95 in 10.0 mi Calm Calm - N/A   Scattered Clouds
4:13 AM 42.8 °F 37.4 °F 81% 29.95 in 10.0 mi Calm Calm - N/A   Clear
4:32 AM 42.8 °F 35.6 °F 76% 29.95 in 10.0 mi Calm Calm - N/A   Clear
4:53 AM 42.8 °F 37.4 °F 81% 29.95 in 10.0 mi Calm Calm - N/A   Clear
5:12 AM 41.0 °F 37.4 °F 87% 29.96 in 10.0 mi Calm Calm - N/A   Clear
5:33 AM 39.2 °F 37.4 °F 93% 29.97 in 10.0 mi Calm Calm - N/A   Clear
5:53 AM 41.0 °F 37.4 °F 87% 29.97 in 10.0 mi Calm Calm - N/A   Clear
6:12 AM 41.0 °F 37.4 °F 87% 29.97 in 10.0 mi Calm Calm - N/A   Clear
6:33 AM 42.8 °F 37.4 °F 81% 29.97 in 10.0 mi Calm Calm - N/A   Clear
6:52 AM 44.6 °F 41.0 °F 87% 29.97 in 10.0 mi Calm Calm - N/A   Clear
7:12 AM 50.0 °F 42.8 °F 76% 29.98 in 10.0 mi Calm Calm - N/A   Clear
7:33 AM 53.6 °F 39.2 °F 58% 29.98 in 10.0 mi Calm Calm - N/A   Clear
7:52 AM 55.4 °F 39.2 °F 54% 29.98 in 10.0 mi Calm Calm - N/A   Clear
8:13 AM 59.0 °F 37.4 °F 45% 29.98 in 10.0 mi ENE 3.5 mph - N/A   Clear
8:33 AM 62.6 °F 33.8 °F 34% 29.99 in 10.0 mi East 3.5 mph - N/A   Clear
8:52 AM 62.6 °F 33.8 °F 34% 29.99 in 10.0 mi East 3.5 mph - N/A   Clear
9:12 AM 64.4 °F 33.8 °F 32% 30.00 in 10.0 mi ESE 5.8 mph - N/A   Clear
9:33 AM 64.4 °F 33.8 °F 32% 30.00 in 10.0 mi ESE 5.8 mph - N/A   Clear
9:53 AM 66.2 °F 33.8 °F 30% 30.00 in 10.0 mi ESE 4.6 mph - N/A   Clear
10:12 AM 66.2 °F 33.8 °F 30% 29.99 in 10.0 mi SSE 5.8 mph - N/A   Clear
10:33 AM 68.0 °F 32.0 °F 26% 29.99 in 10.0 mi SE 9.2 mph - N/A   Clear
10:53 AM 69.8 °F 30.2 °F 23% 29.99 in 10.0 mi SE 6.9 mph - N/A   Clear
11:13 AM 69.8 °F 30.2 °F 23% 29.99 in 10.0 mi SE 5.8 mph - N/A   Clear
11:33 AM 71.6 °F 32.0 °F 23% 29.99 in 10.0 mi ESE 5.8 mph - N/A   Clear
11:53 AM 71.6 °F 30.2 °F 22% 29.98 in 10.0 mi SE 6.9 mph 16.1 mph N/A   Clear
12:12 PM 71.6 °F 32.0 °F 23% 29.98 in 10.0 mi ESE 8.1 mph - N/A   Clear
12:33 PM 73.4 °F 32.0 °F 22% 29.97 in 10.0 mi SE 11.5 mph - N/A   Clear
12:53 PM 73.4 °F 30.2 °F 20% 29.97 in 10.0 mi SE 10.4 mph 16.1 mph N/A   Clear
1:31 PM 73.4 °F 33.8 °F 23% 29.97 in 10.0 mi ESE 10.4 mph - N/A   Clear
1:53 PM 73.4 °F 30.2 °F 20% 29.96 in 10.0 mi SE 8.1 mph 11.5 mph N/A   Clear
2:13 PM 75.2 °F 30.2 °F 19% 29.96 in 10.0 mi ESE 11.5 mph 16.1 mph N/A   Clear
2:33 PM 75.2 °F 30.2 °F 19% 29.96 in 10.0 mi SSE 6.9 mph - N/A   Clear
2:53 PM 75.2 °F 32.0 °F 21% 29.97 in 10.0 mi ESE 11.5 mph - N/A   Clear
3:12 PM 75.2 °F 30.2 °F 19% 29.97 in 10.0 mi SSE 6.9 mph - N/A   Clear
3:33 PM 75.2 °F 30.2 °F 19% 29.96 in 10.0 mi SSE 6.9 mph - N/A   Clear
3:53 PM 73.4 °F 28.4 °F 19% 29.96 in 10.0 mi East 3.5 mph - N/A   Clear
4:13 PM 75.2 °F 30.2 °F 19% 29.96 in 10.0 mi SE 6.9 mph - N/A   Clear
4:33 PM 75.2 °F 30.2 °F 19% 29.96 in 10.0 mi SE 6.9 mph - N/A   Clear
4:53 PM 73.4 °F 30.2 °F 20% 29.96 in 10.0 mi SSE 5.8 mph - N/A   Clear
5:13 PM 73.4 °F 30.2 °F 20% 29.97 in 10.0 mi ESE 5.8 mph - N/A   Clear
5:33 PM 73.4 °F 30.2 °F 20% 29.97 in 10.0 mi SE 4.6 mph - N/A   Clear
5:52 PM 73.4 °F 33.8 °F 23% 29.97 in 10.0 mi East 6.9 mph - N/A   Scattered Clouds
6:13 PM 73.4 °F 33.8 °F 23% 29.97 in 10.0 mi East 5.8 mph - N/A   Scattered Clouds
6:32 PM 71.6 °F 33.8 °F 25% 29.97 in 10.0 mi East 6.9 mph - N/A   Scattered Clouds
6:52 PM 71.6 °F 33.8 °F 25% 29.97 in 10.0 mi East 3.5 mph - N/A   Scattered Clouds
7:13 PM 71.6 °F 32.0 °F 23% 29.97 in 10.0 mi ENE 8.1 mph 17.3 mph N/A   Scattered Clouds
7:32 PM 71.6 °F 32.0 °F 23% 29.97 in 10.0 mi ENE 9.2 mph 19.6 mph N/A   Mostly Cloudy
7:53 PM 71.6 °F 33.8 °F 25% 29.97 in 10.0 mi NE 5.8 mph 16.1 mph N/A   Overcast
8:13 PM 71.6 °F 32.0 °F 23% 29.95 in 10.0 mi East 5.8 mph - N/A   Mostly Cloudy
8:33 PM 69.8 °F 33.8 °F 27% 29.96 in 10.0 mi ENE 4.6 mph - N/A   Scattered Clouds
8:53 PM 69.8 °F 32.0 °F 25% 29.96 in 10.0 mi ENE 5.8 mph - N/A   Overcast
9:13 PM 68.0 °F 33.8 °F 28% 29.96 in 10.0 mi East 9.2 mph - N/A   Mostly Cloudy
9:32 PM 66.2 °F 33.8 °F 30% 29.96 in 10.0 mi East 5.8 mph - N/A   Mostly Cloudy
9:53 PM 66.2 °F 33.8 °F 30% 29.96 in 10.0 mi East 9.2 mph - N/A   Overcast
10:13 PM 66.2 °F 32.0 °F 28% 29.96 in 10.0 mi ESE 6.9 mph - N/A   Mostly Cloudy
10:32 PM 66.2 °F 32.0 °F 28% 29.96 in 10.0 mi East 12.7 mph 18.4 mph N/A   Scattered Clouds
10:52 PM 64.4 °F 32.0 °F 30% 29.97 in 10.0 mi ESE 13.8 mph - N/A   Scattered Clouds
11:13 PM 62.6 °F 33.8 °F 34% 29.97 in 10.0 mi ESE 9.2 mph - N/A   Clear
11:33 PM 62.6 °F 33.8 °F 34% 29.98 in 10.0 mi East 6.9 mph - N/A   Scattered Clouds
11:53 PM 60.8 °F 33.8 °F 36% 29.97 in 10.0 mi East 8.1 mph - N/A   Mostly Cloudy